Holyoke AP, Holyoke, CO, CO

11:52 PM MDT on September 25, 2017 (GMT -0600)
Holyoke Municipal

Weather History for KHEQ - February, 2014

Change the Weather History Date:

Saturday, February 8, 2014

  Actual Average Record
Temperature  
Mean Temperature 24 °F -  
Max Temperature 35 °F 43 °F 66 °F (2015)
Min Temperature 14 °F 14 °F 14 °F (2014)
Degree Days  
Heating Degree Days 40    
Moisture  
Dew Point 18 °F    
Average Humidity 75    
Maximum Humidity 93    
Minimum Humidity 60    
Precipitation  
Precipitation 0.00 in - - ()
Sea Level Pressure  
Sea Level Pressure 29.91 in    
Wind  
Wind Speed 9 mph (ENE)    
Max Wind Speed 16 mph    
Max Gust Speed -    
Visibility 10 miles    
Events      
Averages and records for this station are not official NWS values.
T = Trace of Precipitation, MM = Missing Value Source: NWS Daily Summary

Daily Weather History Graph

Daily Weather History Graph

Search for Another Location

Airport or City:

Trip Planner

Search our weather history database for the weather conditions in past years. The results will help you decide how hot, cold, wet, or windy it might be!

Date:

Astronomy

Feb. 08, 2014 Rise Set
Actual Time 6:51 AM MST 5:15 PM MST
Civil Twilight 6:22 AM MST 5:44 PM MST
Nautical Twilight 5:50 AM MST 6:16 PM MST
Astronomical Twilight 5:18 AM MST 6:48 PM MST
Moon 12:11 PM MST (2/8) 2:06 AM MST (2/8)
Length of Visible Light 11h 21m
Length of Day
10h 24m
Waxing Gibbous, 69% of the Moon is Illuminated
Feb 8
Waxing Gibbous
Feb 14
Full
Feb 22
Last Quarter
Mar 1
New
Mar 8
First Quarter

Hourly Weather History & Observations

Time (MST) Temp. Windchill Dew Point Humidity Pressure Visibility Wind Dir Wind Speed Gust Speed Precip Events Conditions
12:15 AM 17.6 °F 5.0 °F 10.4 °F 73% 29.83 in 10.0 mi SW 11.5 mph - N/A   Scattered Clouds
12:35 AM 19.4 °F 7.2 °F 12.2 °F 74% 29.83 in 10.0 mi WSW 11.5 mph - N/A   Mostly Cloudy
12:55 AM 21.2 °F 9.5 °F 15.8 °F 80% 29.84 in 10.0 mi West 11.5 mph - N/A   Mostly Cloudy
1:15 AM 23.0 °F 11.7 °F 15.8 °F 74% 29.83 in 10.0 mi West 11.5 mph - N/A   Scattered Clouds
1:35 AM 21.2 °F 8.9 °F 14.0 °F 74% 29.85 in 10.0 mi West 12.7 mph - N/A   Scattered Clouds
1:55 AM 21.2 °F 10.1 °F 14.0 °F 74% 29.84 in 10.0 mi West 10.4 mph - N/A   Mostly Cloudy
2:15 AM 26.6 °F 16.8 °F 17.6 °F 69% 29.84 in 10.0 mi West 10.4 mph - N/A   Overcast
2:35 AM 24.8 °F 16.1 °F 17.6 °F 74% 29.83 in 10.0 mi West 8.1 mph - N/A   Overcast
2:55 AM 23.0 °F 13.9 °F 15.8 °F 74% 29.83 in 10.0 mi West 8.1 mph - N/A   Mostly Cloudy
3:15 AM 21.2 °F 11.7 °F 15.8 °F 80% 29.83 in 10.0 mi West 8.1 mph - N/A   Mostly Cloudy
3:35 AM 21.2 °F 13.6 °F 14.0 °F 74% 29.84 in 10.0 mi WSW 5.8 mph - N/A   Scattered Clouds
3:55 AM 19.4 °F 8.6 °F 14.0 °F 80% 29.84 in 10.0 mi West 9.2 mph - N/A   Clear
4:15 AM 19.4 °F 9.5 °F 14.0 °F 80% 29.84 in 10.0 mi WNW 8.1 mph - N/A   Clear
4:35 AM 21.2 °F 11.7 °F 15.8 °F 80% 29.85 in 10.0 mi NW 8.1 mph - N/A   Clear
4:55 AM 24.8 °F 16.1 °F 17.6 °F 74% 29.85 in 10.0 mi NW 8.1 mph - N/A   Clear
5:15 AM 24.8 °F 17.9 °F 17.6 °F 74% 29.85 in 10.0 mi WNW 5.8 mph - N/A   Clear
5:35 AM 24.8 °F 19.1 °F 17.6 °F 74% 29.85 in 10.0 mi NW 4.6 mph - N/A   Clear
5:55 AM 24.8 °F 17.9 °F 17.6 °F 74% 29.84 in 10.0 mi NW 5.8 mph - N/A   Scattered Clouds
6:15 AM 24.8 °F 17.9 °F 15.8 °F 69% 29.85 in 10.0 mi NW 5.8 mph - N/A   Clear
6:35 AM 21.2 °F 11.7 °F 14.0 °F 74% 29.85 in 10.0 mi NW 8.1 mph - N/A   Clear
6:55 AM 19.4 °F 14.3 °F 12.2 °F 74% 29.86 in 10.0 mi WNW 3.5 mph - N/A   Clear
7:15 AM 14.0 °F 8.2 °F 10.4 °F 86% 29.86 in 10.0 mi West 3.5 mph - N/A   Clear
7:35 AM 14.0 °F 2.9 °F 8.6 °F 79% 29.87 in 10.0 mi West 8.1 mph - N/A   Clear
7:55 AM 15.8 °F 5.1 °F 10.4 °F 79% 29.88 in 10.0 mi West 8.1 mph - N/A   Clear
8:15 AM 19.4 °F 12.8 °F 12.2 °F 74% 29.89 in 10.0 mi West 4.6 mph - N/A   Scattered Clouds
8:35 AM 19.4 °F - 12.2 °F 74% 29.88 in 10.0 mi Calm Calm - N/A   Mostly Cloudy
8:55 AM 21.2 °F 12.6 °F 14.0 °F 74% 29.89 in 10.0 mi West 6.9 mph - N/A   Mostly Cloudy
9:15 AM 24.8 °F 19.1 °F 17.6 °F 74% 29.90 in 10.0 mi WSW 4.6 mph - N/A   Overcast
9:35 AM 26.6 °F 22.6 °F 17.6 °F 69% 29.89 in 10.0 mi SSW 3.5 mph - N/A   Mostly Cloudy
9:55 AM 30.2 °F - 19.4 °F 64% 29.89 in 10.0 mi Calm Calm - N/A   Overcast
10:15 AM 32.0 °F - 19.4 °F 60% 29.89 in 10.0 mi Calm Calm - N/A   Mostly Cloudy
10:35 AM 32.0 °F - 19.4 °F 60% 29.90 in 10.0 mi Calm Calm - N/A   Mostly Cloudy
10:55 AM 32.0 °F - 19.4 °F 60% 29.90 in 10.0 mi Calm Calm - N/A   Mostly Cloudy
11:15 AM 33.8 °F - 21.2 °F 60% 29.90 in 10.0 mi Calm Calm - N/A   Overcast
11:35 AM 33.8 °F 27.0 °F 21.2 °F 60% 29.88 in 10.0 mi SE 8.1 mph - N/A   Mostly Cloudy
11:55 AM 33.8 °F 26.4 °F 21.2 °F 60% 29.86 in 10.0 mi SE 9.2 mph - N/A   Scattered Clouds
12:15 PM 33.8 °F 26.4 °F 21.2 °F 60% 29.85 in 10.0 mi South 9.2 mph - N/A   Scattered Clouds
12:35 PM 33.8 °F 25.3 °F 23.0 °F 65% 29.85 in 10.0 mi SSE 11.5 mph - N/A   Mostly Cloudy
12:55 PM 33.8 °F 25.8 °F 21.2 °F 60% 29.85 in 10.0 mi SSE 10.4 mph - N/A   Mostly Cloudy
1:15 PM 33.8 °F 25.3 °F 23.0 °F 65% 29.84 in 10.0 mi SSE 11.5 mph - N/A   Overcast
1:35 PM 33.8 °F 25.8 °F 23.0 °F 65% 29.84 in 10.0 mi SSE 10.4 mph - N/A   Overcast
1:55 PM 33.8 °F 27.7 °F 21.2 °F 60% 29.85 in 10.0 mi SE 6.9 mph - N/A   Mostly Cloudy
2:15 PM 35.6 °F 29.2 °F 23.0 °F 60% 29.84 in 10.0 mi SE 8.1 mph - N/A   Scattered Clouds
2:35 PM 33.8 °F 27.7 °F 23.0 °F 65% 29.85 in 10.0 mi ESE 6.9 mph - N/A   Clear
2:55 PM 33.8 °F 27.0 °F 23.0 °F 65% 29.85 in 10.0 mi ESE 8.1 mph - N/A   Clear
3:15 PM 33.8 °F 25.8 °F 23.0 °F 65% 29.85 in 10.0 mi SE 10.4 mph - N/A   Clear
3:35 PM 33.8 °F 26.4 °F 23.0 °F 65% 29.85 in 10.0 mi SE 9.2 mph - N/A   Clear
3:55 PM 33.8 °F 26.4 °F 24.8 °F 70% 29.85 in 10.0 mi SE 9.2 mph - N/A   Clear
4:15 PM 32.0 °F 25.6 °F 23.0 °F 69% 29.85 in 10.0 mi SE 6.9 mph - N/A   Clear
4:35 PM 30.2 °F 22.6 °F 21.2 °F 69% 29.87 in 10.0 mi ESE 8.1 mph - N/A   Clear
4:55 PM 26.6 °F 16.8 °F 21.2 °F 80% 29.88 in 10.0 mi East 10.4 mph - N/A   Clear
5:15 PM 24.8 °F 14.0 °F 19.4 °F 80% 29.89 in 10.0 mi East 11.5 mph - N/A   Clear
5:35 PM 23.0 °F 13.1 °F 19.4 °F 86% 29.90 in 10.0 mi East 9.2 mph - N/A   Clear
5:55 PM 21.2 °F 11.7 °F 17.6 °F 86% 29.93 in 10.0 mi ENE 8.1 mph - N/A   Clear
6:15 PM 21.2 °F 10.1 °F 17.6 °F 86% 29.93 in 10.0 mi ENE 10.4 mph - N/A   Clear
6:35 PM 21.2 °F 11.7 °F 15.8 °F 80% 29.94 in 10.0 mi East 8.1 mph - N/A   Clear
6:55 PM 21.2 °F 10.9 °F 17.6 °F 86% 29.95 in 10.0 mi ENE 9.2 mph - N/A   Clear
7:15 PM 19.4 °F 9.5 °F 15.8 °F 86% 29.97 in 10.0 mi ENE 8.1 mph - N/A   Clear
7:35 PM 17.6 °F 7.3 °F 14.0 °F 86% 29.98 in 10.0 mi ENE 8.1 mph - N/A   Mostly Cloudy
7:55 PM 19.4 °F 6.6 °F 15.8 °F 86% 30.01 in 10.0 mi NE 12.7 mph - N/A   Overcast
8:15 PM 21.2 °F 8.9 °F 17.6 °F 86% 30.03 in 10.0 mi NE 12.7 mph - N/A   Overcast
8:35 PM 21.2 °F 9.5 °F 17.6 °F 86% 30.04 in 10.0 mi NE 11.5 mph - N/A   Overcast
8:55 PM 21.2 °F 8.9 °F 17.6 °F 86% 30.06 in 10.0 mi NE 12.7 mph - N/A   Overcast
9:15 PM 23.0 °F 11.1 °F 17.6 °F 80% 30.07 in 10.0 mi NE 12.7 mph - N/A   Overcast
9:35 PM 23.0 °F 11.7 °F 17.6 °F 80% 30.08 in 10.0 mi NE 11.5 mph - N/A   Overcast
9:55 PM 23.0 °F 11.1 °F 19.4 °F 86% 30.09 in 10.0 mi NE 12.7 mph - N/A   Overcast
10:15 PM 23.0 °F 10.6 °F 19.4 °F 86% 30.10 in 10.0 mi NE 13.8 mph - N/A   Overcast
10:35 PM 23.0 °F 12.4 °F 21.2 °F 93% 30.10 in 10.0 mi NE 10.4 mph - N/A   Overcast
10:55 PM 23.0 °F 10.1 °F 19.4 °F 86% 30.10 in 10.0 mi NE 15.0 mph - N/A   Overcast
11:15 PM 23.0 °F 13.1 °F 19.4 °F 86% 30.10 in 10.0 mi NE 9.2 mph - N/A   Overcast
11:35 PM 21.2 °F 8.9 °F 17.6 °F 86% 30.10 in 10.0 mi NE 12.7 mph - N/A   Overcast
11:55 PM 21.2 °F 7.3 °F 17.6 °F 86% 30.10 in 10.0 mi NNE 16.1 mph - N/A   Overcast